www.pogodaiklimat.ru

Погода и климат >> Архив погоды >> Россия >> Тульская область >> Тула


АРХИВ ПОГОДЫ в Туле

Время (UTC), дата Ветер
(напр.,м/с)
 
Видим.   Явления Облачность Т
(С)
Тd
(С)
f
(%)
Тe
(С)
Тes
(С)
Комфортность P
(гПа)
Po
(гПа)
Тmin
(С)
Tmax
(С)
R
(мм)
R24
(мм)
S
(см)
15 17.04 СВ 2 10 км 3/0
[Ci fib]
+9.9 -8.8 26 +9 +10 по сезону 1030.8 1005.6
18 17.04 СВ 1 10 км 4/0
[Ac trans Ci fib]
+5.8 -7.6 37 +6 +6 по сезону 1031.6 1006.1 +10.4
21 17.04 штиль 0 10 км 4/0
[Ac trans]
+1.3 -4.7 64 +1 +1 прохладно 1031.9 1005.9
00 18.04 штиль 0 10 км 6/0
[Ac trans]
-0.2 -4.5 73 -1 -1 прохладно 1031.7 1005.6
03 18.04 ЮЗ 1 10 км 8/5 1000 м
[Sc Ac und Ci fib]
-1.4 -3.9 83 -3 -3 холодно 1030.9 1004.7 -1.4
06 18.04 ЮЗ 2 10 км 9/0
[Ac trans Ci fib]
+7.4 -6.7 36 +6 +10 по сезону 1028.8 1003.4 -1.4
09 18.04 ЮЗ 2 10 км 10/4 600 м
[Cb calv As trans]
+10.6 -6.1 30 +10 +13 по сезону 1027.0 1002.0
12 18.04 З 1 10 км 9/9 600 м
[Cb calv]
+11.1 -6.4 29 +12 +13 по сезону 1026.1 1001.2
15 18.04 СВ 1 10 км 9/5 600 м
[Cb calv Ac trans]
+10.6 -5.6 32 +11 +11 по сезону 1025.8 1000.8
18 18.04 СВ 2 10 км 9/3 600 м
[Cb calv Ac trans]
+7.9 -4.2 42 +7 +7 по сезону 1027.2 1002.0 +11.9
21 18.04 С 1 10 км 9/3 1000 м
[Sc Ac trans]
+4.9 -3.3 55 +4 +4 по сезону 1028.5 1002.9
00 19.04 С 2 10 км ясно +2.8 -4.6 58 0 0 по сезону 1029.4 1003.6
03 19.04 СВ 1 10 км 8/5 600 м
[Cb calv Ci fib]
+1.2 -4.1 68 -0 -0 прохладно 1029.9 1004.0 +0.6
06 19.04 С 2 10 км 4/0
[Ac trans Ci fib]
+7.1 -5.1 42 +6 +11 по сезону 1030.3 1004.9 +0.6
09 19.04 В 2 10 км 8/8 1000 м
[Cu med, cong]
+10.2 -7.6 28 +9 +12 по сезону 1030.0 1004.9
12 19.04 СЗ 1 10 км 9/8 600 м
[Cb calv Ac trans]
+10.6 -8.0 26 +11 +12 по сезону 1029.6 1004.5
15 19.04 штиль 0 10 км 5/3 1000 м
[Cu hum Ac trans]
+11.2 -8.5 24 +11 +12 по сезону 1028.7 1003.7
18 19.04 штиль 0 10 км 3/0
[Ac trans]
+5.1 -6.3 43 +5 +5 по сезону 1029.3 1003.7 +12.4
21 19.04 ЮЗ 1 10 км ясно +2.7 -4.6 59 +2 +2 прохладно 1029.0 1003.2
00 20.04 ЮЗ 1 10 км 3/0
[Ci fib]
-0.2 -3.8 77 -2 -2 холодно 1028.4 1002.4
03 20.04 ЮЗ 1 10 км 3/0
[Ac trans Ci fib]
-1.2 -4.5 78 -3 -3 очень
холодно
1027.8 1001.7 -1.6
06 20.04 ЮЗ 2 10 км 6/0
[Ac trans Ci fib]
+7.5 -4.6 42 +6 +11 по сезону 1026.7 1001.4 -1.6
09 20.04 З 2 10 км 8/0
[Ac trans Ci fib]
+12.8 -6.2 26 +13 +21 тепло 1025.2 1000.5
12 20.04 ЮЗ 2 10 км 8/0
[Ac trans Ci fib]
+14.4 -7.0 22 +14 +20 по сезону 1024.1 999.5
15 20.04 Ю 1 10 км 8/0
[Ac trans Ci fib]
+14.2 -6.8 23 +15 +16 тепло 1023.5 998.9
18 20.04 штиль 0 10 км 6/0
[Ac trans Ci fib]
+7.8 -5.0 40 +8 +8 по сезону 1024.9 999.7 +14.9
21 20.04 СВ 1 10 км 4/0
[Ci fib]
+3.9 -3.6 58 +3 +3 прохладно 1025.6 1000.1
00 21.04 СВ 1 10 км ясно +1.3 -3.5 70 -0 -0 прохладно 1026.0 1000.2
03 21.04 СВ 1 10 км 3/0
[Ci fib]
-0.3 -3.6 78 -2 -2 холодно 1026.9 1000.9 -0.6
06 21.04 ЮВ 1 10 км ясно +10.7 -4.1 35 +11 +18 тепло 1026.9 1001.9 -0.6
09 21.04 Ю 1 10 км ясно +15.5 -7.3 20 +16 +31 опасность
простуды
1026.7 1002.1
12 21.04 ЮВ 1 10 км ясно +16.8 -8.0 18 +18 +28 тепло 1025.9 1001.4
15 21.04 штиль 0 10 км ясно +16.2 -8.5 18 +16 +18 тепло 1025.5 1001.0
18 21.04 СВ 1 10 км ясно +9.8 -5.9 33 +10 +10 по сезону 1027.1 1002.0 +17.0
21 21.04 СВ 1 10 км ясно +5.3 -3.6 53 +5 +5 по сезону 1028.1 1002.6
00 22.04 штиль 0 10 км ясно +2.1 -3.2 68 +1 +1 по сезону 1029.0 1003.2
03 22.04 штиль 0 10 км ясно +0.7 -2.6 79 -0 0 прохладно 1029.8 1003.8 +0.1
06 22.04 ЮЗ 1 10 км ясно +11.2 +0.3 47 +11 +19 тепло 1029.5 1004.5 +0.1
09 22.04 СВ 3 10 км 8/5 600 м
[Cu med, cong Ci fib]
+17.9 -6.7 18 +18 +23 тепло 1028.6 1004.2
12 22.04 СЗ 2 10 км 9/5 1000 м
[Cu med, cong Cs]
+18.3 -6.1 18 +19 +23 тепло 1027.4 1003.0
15 22.04 С 2 10 км 6/1 1000 м
[Sc Cs]
+17.3 -5.8 20 +18 +19 тепло 1026.7 1002.3
18 22.04 С 1 10 км ясно +11.5 -4.1 33 +12 +12 тепло 1027.7 1002.8 +18.8
21 22.04 ЮЗ 1 10 км ясно +6.9 -1.4 55 +6 +6 по сезону 1028.6 1003.3
00 23.04 ЮЗ 1 10 км ясно +4.0 -1.0 70 +3 +3 по сезону 1029.0 1003.4
03 23.04 ЮЗ 1 10 км 9/9 1000 м
[Sc]
+4.0 -0.9 70 +3 +3 по сезону 1029.4 1003.8 +3.1
06 23.04 З 1 10 км 6/3 1000 м
[Sc Ac trans Ci fib]
+11.8 +0.8 47 +12 +16 тепло 1029.1 1004.2 +3.1
09 23.04 С 4-10
{10}
10 км 6/1 1000 м
[Sc Cs]
+18.7 -4.7 20 +19 +25 тепло 1028.0 1003.6
12 23.04 СЗ 3
{11}
10 км 8/3 1000 м
[Cu hum Ac As Cs]
+19.5 -3.8 20 +20 +23 тепло 1026.8 1002.5
15 23.04 СЗ 3 10 км 8/6 1000 м
[Sc Ac trans]
+18.2 -2.9 24 +18 +19 тепло 1026.1 1001.7
18 23.04 СЗ 2 10 км 4/4 1000 м
[Sc]
+14.6 -1.7 32 +15 +15 тепло 1026.6 1002.0 +19.9
21 23.04 СЗ 1 10 км ясно +11.9 -1.2 40 +12 +12 тепло 1027.2 1002.3
00 24.04 ЮЗ 1 10 км ясно +7.3 +0.1 60 +7 +7 тепло 1028.1 1002.8
03 24.04 З 1 10 км 3/3 1000 м
[Sc]
+6.3 +0.2 65 +6 +6 по сезону 1029.0 1003.6 +5.9
06 24.04 ЮЗ 1 10 км ясно +15.1 +1.9 41 +16 +24 тепло 1028.7 1004.0 +5.9
09 24.04 С 3 10 км ясно +20.0 +0.1 26 +20 +31 тепло 1027.5 1003.3

 

Местоположение метеостанции Тула (Тульская область, Россия): широта 54.23 долгота 37.62 высота над уровнем моря 205 м.

В архиве по умолчанию представлена погода в Туле за последнюю неделю. Архивные данные за месяц целиком и за предыдущие месяцы, начиная с января 2011 года, Вы можете получить, выбрав интересующий диапазон дат из раскрывающегося списка и нажав кнопку "Ввод!".


*Определитесь, кто Вы:
робот инопланетянин человек

Внимание! Время в таблицах - всемирное. Для получения местного времени необходимо прибавить поправку, которая равна 3 ч.

Смотрите также архив погоды в соседних городах и на ближайших метеорологических станциях:

Погода в Узловой (Тульская область, Россия) (42 км)
Погода в Алексине (Тульская область, Россия) (46 км)
Погода в Плавске (Тульская область, Россия) (69 км)
Погода в Суворове (Тульская область, Россия) (72 км)
Погода в Кашире (Московская область, Россия) (75 км)
Погода в Серебряных Прудах (Московская область, Россия) (76 км)
Погода в Волово (Тульская область, Россия) (78 км)
Погода в Серпухове (Московская область, Россия) (78 км)
Погода в Калуге (Калужская область, Россия) (79 км)
Погода в Михайлове (Рязанская область, Россия) (92 км)

Пояснения к столбцам:

Ветер - указаны скорость ветра в м/с - средняя за 10 мин, порывы в срок и между сроками (в фигурных скобках) и направление, откуда дует ветер: С - северный, СВ - северо-восточный, В - восточный, ЮВ - юго-восточный, Ю - южный, ЮЗ - юго-западный, З - западный, СЗ - северо-западный.
Видимость - горизонтальная дальность видимости в метрах или километрах. При видимости от 1 до 10 км при отсутствии осадков обычно наблюдается дымка, при ухудшении видимости до 1 км и менее - туман. В сухую погоду видимость может ухудшаться дымом, пылью или мглою.
Явления - указаны атмосферные явления, наблюдавшиеся в срок или в последний час перед сроком; фигурными скобками обозначены явления, наблюдавшиеся между сроками (за 1-3 часа до срока); квадратными скобками обозначены град или гололедные отложения с указанием их диаметра в мм.
Облачность - указаны через наклонную черту общая и нижняя облачность в баллах и высота нижней границы облаков в метрах; квадратными скобками обозначены формы облаков: Ci - перистые, Cs - перисто-слоистые, Cc - перисто-кучевые, Ac - высококучевые, As - высокослоистые, Sc - слоисто-кучевые, Ns - слоисто-дождевые, Cu - кучевые, Cb - кучево-дождевые. Подробнее классификацию облаков см. в Атласе облаков (PDF).
T - Температура воздуха - температура, измеренная на высоте 2 м над землей.
Td - Температура точки росы - температура, при понижении до которой содержащийся в воздухе водяной пар достигнет насыщения.
f - Относительная влажность воздуха - влажноcть воздуха, измеренная на высоте 2 м над землей.
Te - Эффективная температура - температура, которую ощущает одетый по сезону человек в тени. Характеристика душности погоды. При расчете учитывается влияние влажности воздуха и скорости ветра на теплоощущения человека.
Tes - Эффективная температура на солнце - температура, которую ощущает человек, с поправкой на солнечный нагрев. Характеристика знойности погоды. Зависит от высоты солнца над горизонтом, облачности и скорости ветра. Ночью, в пасмурную погоду, а также при ветре 12 м/с и более поправка равна нулю.
P - Атмосферное давление - приведенное к уровню моря атмосферное давление.
Po - Атмосферное давление - измеренное на уровне метеостанции атмосферное давление.
Tmin - Минимальная температура - минимум температуры воздуха на высоте 2 м над землей.
Tmax - Максимальная температура - максимум температуры воздуха на высоте 2 м над землей.
R - Количество осадков - Количество выпавших осадков за период времени, мм. При наведении курсора мыши на число - период времени, за который выпало указанное количество осадков.
R24 - Количество осадков - Количество выпавших осадков за 24 часа, мм.
S - Снежный покров - Высота снежного покрова, см. При наведении курсора мыши на число - состояние снежного покрова и степень покрытия местности в баллах.